TimeMST,TemperatureF,Dew PointF,Humidity,Sea Level PressureIn,VisibilityMPH,Wind Direction,Wind SpeedMPH,Gust SpeedMPH,PrecipitationIn,Events,Conditions,WindDirDegrees,DateUTC
12:53 AM,24.1,18.0,77,30.40,10.0,SW,3.5,-,N/A,,Overcast,220,2013-02-15 07:53:00
1:53 AM,24.1,17.1,75,30.40,10.0,SW,3.5,-,N/A,,Overcast,230,2013-02-15 08:53:00
2:53 AM,24.1,17.1,75,30.41,10.0,WNW,4.6,-,N/A,,Overcast,290,2013-02-15 09:53:00
3:53 AM,23.0,17.1,78,30.39,10.0,SW,5.8,-,N/A,,Mostly Cloudy,230,2013-02-15 10:53:00
4:53 AM,23.0,16.0,74,30.41,10.0,West,6.9,-,N/A,,Partly Cloudy,280,2013-02-15 11:53:00
5:53 AM,23.0,16.0,74,30.42,10.0,West,8.1,-,N/A,,Mostly Cloudy,270,2013-02-15 12:53:00
6:53 AM,21.0,16.0,81,30.44,10.0,NW,4.6,-,N/A,,Mostly Cloudy,310,2013-02-15 13:53:00
7:53 AM,24.1,18.0,77,30.45,10.0,SW,4.6,-,N/A,,Clear,220,2013-02-15 14:53:00
8:53 AM,28.0,19.0,69,30.45,10.0,WSW,6.9,-,N/A,,Clear,250,2013-02-15 15:53:00
9:53 AM,32.0,18.0,56,30.43,10.0,WSW,11.5,-,N/A,,Clear,250,2013-02-15 16:53:00
10:53 AM,34.0,18.0,52,30.41,10.0,West,10.4,-,N/A,,Scattered Clouds,260,2013-02-15 17:53:00
11:53 AM,35.1,17.1,48,30.38,10.0,WSW,11.5,-,N/A,,Mostly Cloudy,250,2013-02-15 18:53:00
12:53 PM,36.0,15.1,43,30.36,10.0,West,13.8,-,N/A,,Overcast,270,2013-02-15 19:53:00
1:53 PM,37.9,16.0,41,30.33,10.0,West,10.4,-,N/A,,Clear,260,2013-02-15 20:53:00
2:53 PM,39.0,15.1,38,30.30,10.0,West,9.2,-,N/A,,Clear,280,2013-02-15 21:53:00
3:53 PM,39.0,17.1,41,30.28,10.0,WSW,9.2,-,N/A,,Mostly Cloudy,240,2013-02-15 22:53:00
4:53 PM,37.0,19.0,48,30.25,10.0,SSW,5.8,-,N/A,,Overcast,210,2013-02-15 23:53:00
5:53 PM,36.0,19.0,50,30.22,10.0,South,8.1,-,N/A,,Overcast,180,2013-02-16 00:53:00
6:53 PM,36.0,21.9,57,30.20,10.0,South,8.1,-,N/A,,Overcast,170,2013-02-16 01:53:00
7:53 PM,34.0,23.0,64,30.17,10.0,SSE,5.8,-,N/A,,Overcast,150,2013-02-16 02:53:00
8:53 PM,36.0,23.0,59,30.13,10.0,South,8.1,-,N/A,,Overcast,190,2013-02-16 03:53:00
9:53 PM,37.0,25.0,62,30.09,10.0,WSW,8.1,-,N/A,,Overcast,250,2013-02-16 04:53:00
10:53 PM,39.9,25.0,55,30.08,10.0,WNW,9.2,-,N/A,,Overcast,290,2013-02-16 05:53:00
11:53 PM,39.9,26.1,58,30.06,10.0,West,16.1,-,N/A,,Clear,280,2013-02-16 06:53:00